• în Republica Moldova
  • Lista ţărilor
  • Pe 7 zile
  • Temperatura apei
  • Hartă satelitară
  • Meteo pe hartă
  • Widget-uri
  • user-avatar
    Intrare

    Meteo pe oră la Canberra

    Astăzi, 20 Ianuarie, Duminică

    Timp Temperatura Precipitaţii Vânt Presiune Umiditate
    00:00 +19°C° 0 mm 2 m/s 712 mmHg 83%
    01:00 +18°C° 0 mm 2 m/s 712 mmHg 84%
    02:00 +18°C° 0 mm 2 m/s 712 mmHg 84%
    03:00 +18°C° 0 mm 2 m/s 712 mmHg 85%
    04:00 +19°C° 0 mm 1 m/s 712 mmHg 84%
    05:00 +19°C° 0 mm 1 m/s 712 mmHg 81%
    06:00 +20°C° 0 mm 1 m/s 712 mmHg 79%
    07:00 +19°C° 0 mm 2 m/s 713 mmHg 76%
    08:00 +23°C° 0 mm 2 m/s 713 mmHg 67%
    09:00 +26°C° 0 mm 2 m/s 713 mmHg 57%
    10:00 +27°C° 0 mm 2 m/s 713 mmHg 53%
    11:00 +29°C° 0 mm 2 m/s 713 mmHg 47%
    12:00 +32°C° 0 mm 2 m/s 713 mmHg 40%
    13:00 +35°C° 0 mm 2 m/s 713 mmHg 33%
    14:00 +35°C° 0 mm 2 m/s 712 mmHg 32%
    15:00 +36°C° 0 mm 2 m/s 712 mmHg 30%
    16:00 +36°C° 0 mm 2 m/s 712 mmHg 29%
    17:00 +33°C° 0 mm 3 m/s 712 mmHg 38%
    18:00 +30°C° 0 mm 4 m/s 711 mmHg 48%
    19:00 +27°C° 0 mm 5 m/s 711 mmHg 58%
    20:00 +25°C° 0 mm 4 m/s 711 mmHg 67%
    21:00 +22°C° 0 mm 4 m/s 711 mmHg 76%
    22:00 +20°C° 0 mm 3 m/s 711 mmHg 85%
    23:00 +20°C° 0 mm 3 m/s 712 mmHg 85%

    Mâine, 21 Ianuarie, Luni

    Timp Temperatura Precipitaţii Vânt Presiune Umiditate
    00:00 +20°C° 0 mm 3 m/s 712 mmHg 86%
    01:00 +20°C° 0 mm 2 m/s 712 mmHg 86%
    02:00 +19°C° 0 mm 2 m/s 712 mmHg 88%
    03:00 +19°C° 0 mm 2 m/s 711 mmHg 89%
    04:00 +20°C° 0 mm 1 m/s 711 mmHg 90%
    05:00 +21°C° 0 mm 1 m/s 711 mmHg 88%
    06:00 +21°C° 0 mm 1 m/s 711 mmHg 85%
    07:00 +22°C° 0 mm 1 m/s 712 mmHg 82%
    08:00 +25°C° 0 mm 2 m/s 712 mmHg 71%
    09:00 +28°C° 0 mm 2 m/s 712 mmHg 61%
    10:00 +30°C° 0 mm 2 m/s 712 mmHg 50%
    11:00 +32°C° 0 mm 2 m/s 712 mmHg 45%
    12:00 +34°C° 0 mm 2 m/s 711 mmHg 40%
    13:00 +36°C° 0 mm 2 m/s 711 mmHg 35%
    14:00 +35°C° 0 mm 2 m/s 711 mmHg 35%
    15:00 +35°C° 0 mm 2 m/s 710 mmHg 34%
    16:00 +34°C° 0 mm 1 m/s 710 mmHg 34%
    17:00 +32°C° 0.3 mm 2 m/s 710 mmHg 43%
    18:00 +30°C° 0.3 mm 3 m/s 709 mmHg 51%
    19:00 +28°C° 0.3 mm 3 m/s 709 mmHg 60%
    20:00 +27°C° 0.1 mm 3 m/s 710 mmHg 67%
    21:00 +26°C° 0.1 mm 2 m/s 710 mmHg 75%
    22:00 +24°C° 0.1 mm 1 m/s 710 mmHg 82%
    23:00 +24°C° 0 mm 1 m/s 710 mmHg 84%

    Poimâine, 22 Ianuarie, Marţi

    Timp Temperatura Precipitaţii Vânt Presiune Umiditate
    00:00 +23°C° 0 mm 1 m/s 710 mmHg 85%
    01:00 +20°C° 0 mm 0 m/s 709 mmHg 87%
    02:00 +20°C° 0 mm 0 m/s 709 mmHg 87%
    03:00 +20°C° 0 mm 0 m/s 709 mmHg 87%
    04:00 +20°C° 0 mm 0 m/s 709 mmHg 87%
    05:00 +21°C° 0 mm 0 m/s 709 mmHg 80%
    06:00 +23°C° 0 mm 0 m/s 710 mmHg 74%
    07:00 +24°C° 0 mm 0 m/s 710 mmHg 68%
    08:00 +29°C° 0 mm 1 m/s 710 mmHg 58%
    09:00 +31°C° 0 mm 2 m/s 710 mmHg 48%
    10:00 +35°C° 0 mm 3 m/s 710 mmHg 38%
    11:00 +36°C° 0 mm 3 m/s 710 mmHg 34%
    12:00 +37°C° 0 mm 3 m/s 710 mmHg 30%
    13:00 +38°C° 0 mm 3 m/s 709 mmHg 26%
    14:00 +38°C° 0 mm 3 m/s 709 mmHg 27%
    15:00 +37°C° 0 mm 3 m/s 708 mmHg 28%
    16:00 +37°C° 0 mm 3 m/s 708 mmHg 30%
    17:00 +35°C° 0 mm 3 m/s 708 mmHg 34%
    18:00 +34°C° 0 mm 3 m/s 708 mmHg 39%
    19:00 +32°C° 0 mm 4 m/s 708 mmHg 43%
    20:00 +30°C° 0.3 mm 3 m/s 708 mmHg 48%
    21:00 +29°C° 0.3 mm 2 m/s 708 mmHg 53%
    22:00 +28°C° 0.3 mm 1 m/s 708 mmHg 58%
    23:00 +27°C° 0.1 mm 1 m/s 708 mmHg 60%

    23 Ianuarie, Miercuri

    Timp Temperatura Precipitaţii Vânt Presiune Umiditate
    00:00 +26°C° 0.1 mm 1 m/s 707 mmHg 62%
    01:00 +25°C° 0.1 mm 1 m/s 707 mmHg 64%
    02:00 +25°C° 0.3 mm 1 m/s 707 mmHg 67%
    03:00 +24°C° 0.3 mm 1 m/s 707 mmHg 69%
    04:00 +24°C° 0.3 mm 1 m/s 707 mmHg 72%
    05:00 +24°C° 0.2 mm 1 m/s 707 mmHg 70%
    06:00 +25°C° 0.2 mm 2 m/s 708 mmHg 68%
    07:00 +26°C° 0.2 mm 2 m/s 708 mmHg 66%
    08:00 +28°C° 0 mm 2 m/s 709 mmHg 58%
    09:00 +30°C° 0 mm 3 m/s 709 mmHg 50%
    10:00 +34°C° 0 mm 3 m/s 709 mmHg 41%
    11:00 +35°C° 0 mm 3 m/s 709 mmHg 38%
    12:00 +36°C° 0 mm 3 m/s 708 mmHg 35%
    13:00 +37°C° 0 mm 4 m/s 708 mmHg 32%
    14:00 +34°C° 1.1 mm 3 m/s 707 mmHg 42%
    15:00 +31°C° 1.1 mm 3 m/s 707 mmHg 52%
    16:00 +29°C° 1.1 mm 2 m/s 706 mmHg 62%
    17:00 +27°C° 2.5 mm 3 m/s 707 mmHg 67%
    18:00 +26°C° 2.5 mm 3 m/s 707 mmHg 72%
    19:00 +24°C° 2.5 mm 3 m/s 707 mmHg 77%
    20:00 +24°C° 1 mm 3 m/s 708 mmHg 80%
    21:00 +22°C° 1 mm 3 m/s 708 mmHg 82%
    22:00 +22°C° 1 mm 3 m/s 709 mmHg 85%
    23:00 +21°C° 0.1 mm 2 m/s 708 mmHg 86%

    24 Ianuarie, Joi

    Timp Temperatura Precipitaţii Vânt Presiune Umiditate
    00:00 +21°C° 0.1 mm 2 m/s 708 mmHg 87%
    01:00 +20°C° 0.1 mm 2 m/s 708 mmHg 88%
    02:00 +20°C° 0 mm 1 m/s 708 mmHg 88%
    03:00 +20°C° 0 mm 1 m/s 708 mmHg 88%
    04:00 +19°C° 0 mm 1 m/s 708 mmHg 88%
    05:00 +20°C° 0 mm 1 m/s 708 mmHg 83%
    06:00 +21°C° 0 mm 1 m/s 709 mmHg 78%
    07:00 +22°C° 0 mm 1 m/s 709 mmHg 73%
    08:00 +25°C° 0 mm 2 m/s 709 mmHg 64%
    09:00 +27°C° 0 mm 2 m/s 710 mmHg 55%
    10:00 +30°C° 0 mm 3 m/s 710 mmHg 46%
    11:00 +33°C° 0 mm 3 m/s 709 mmHg 41%
    12:00 +35°C° 0 mm 3 m/s 709 mmHg 37%
    13:00 +37°C° 0 mm 3 m/s 709 mmHg 32%
    14:00 +38°C° 0 mm 3 m/s 708 mmHg 30%
    15:00 +39°C° 0 mm 3 m/s 708 mmHg 27%
    16:00 +39°C° 0 mm 2 m/s 708 mmHg 25%
    17:00 +37°C° 0 mm 2 m/s 708 mmHg 30%
    18:00 +35°C° 0 mm 2 m/s 708 mmHg 36%
    19:00 +32°C° 0 mm 2 m/s 708 mmHg 42%
    20:00 +30°C° 0 mm 2 m/s 708 mmHg 52%
    21:00 +28°C° 0 mm 2 m/s 708 mmHg 63%
    22:00 +27°C° 0 mm 2 m/s 708 mmHg 74%
    23:00 +26°C° 0 mm 1 m/s 708 mmHg 77%

    25 Ianuarie, Vineri

    Timp Temperatura Precipitaţii Vânt Presiune Umiditate
    00:00 +25°C° 0 mm 1 m/s 707 mmHg 80%
    01:00 +25°C° 0 mm 1 m/s 707 mmHg 83%
    02:00 +22°C° 0 mm 0 m/s 707 mmHg 82%
    03:00 +22°C° 0 mm 0 m/s 707 mmHg 82%
    04:00 +22°C° 0 mm 0 m/s 707 mmHg 82%
    05:00 +25°C° 0 mm 1 m/s 707 mmHg 74%
    06:00 +27°C° 0 mm 1 m/s 707 mmHg 67%
    07:00 +28°C° 0 mm 1 m/s 708 mmHg 59%
    08:00 +31°C° 0 mm 3 m/s 708 mmHg 50%
    09:00 +35°C° 0 mm 4 m/s 708 mmHg 41%
    10:00 +37°C° 0 mm 5 m/s 708 mmHg 33%
    11:00 +40°C° 0 mm 5 m/s 708 mmHg 29%
    12:00 +41°C° 0 mm 6 m/s 707 mmHg 26%
    13:00 +42°C° 0 mm 6 m/s 707 mmHg 23%
    14:00 +42°C° 0 mm 5 m/s 706 mmHg 22%
    15:00 +42°C° 0 mm 5 m/s 706 mmHg 21%
    16:00 +42°C° 0 mm 4 m/s 705 mmHg 21%
    17:00 +41°C° 0 mm 4 m/s 705 mmHg 23%
    18:00 +38°C° 0 mm 3 m/s 705 mmHg 26%
    19:00 +36°C° 0 mm 2 m/s 705 mmHg 28%
    20:00 +35°C° 0 mm 2 m/s 705 mmHg 29%
    21:00 +34°C° 0 mm 2 m/s 705 mmHg 30%
    22:00 +32°C° 0 mm 2 m/s 706 mmHg 31%
    23:00 +32°C° 0 mm 2 m/s 706 mmHg 33%
    Arată mai mult